Preview of NWS' New Version of Forecast
This preview is not operational and should not be used for support decisions.

Regional Weather Roundup (RWR)

Issued by Midland/Odessa (MAF)

                            
000
ASUS44 KMAF 170610
RWRMAF
MIDLAND AREA WEATHER ROUNDUP
NATIONAL WEATHER SERVICE MIDLAND TX
1200 AM CST MON DEC 17 2018

...IN SOUTHWEST TEXAS AND SOUTHEAST NEW MEXICO...
  
CITY           SKY/WX    TMP DP  RH WIND       PRES   REMARKS
ALPINE         CLOUDY    43  18  36 W7        30.37F WCI  39          
ANDREWS        FAIR      41  32  70 N3        30.28F                  
ARTESIA        CLOUDY    43  37  81 N5        30.30S                  
BIG SPRING     PTCLDY    44  35  73 CALM      30.30S                  
CARLSBAD       CLOUDY    46  35  65 SW5       30.29R                  
DRYDEN           N/A     45  38  76 NW7       30.26                   
FORT STOCKTON  MOCLDY    43  34  70 SW9       30.28F WCI  38          
GUAD PASS      NOT AVBL                                               
HOBBS          CLOUDY    41  32  70 NW7       30.31S WCI  36          
LAMESA         NOT AVBL                                               
MARFA          NOT AVBL                                               
MIDLAND AIRPK    N/A     46  35  67 CALM      30.31R                  
MIDLAND INTL   CLOUDY    44  36  73 CALM      30.29R                  
ODESSA           N/A     42  34  73 CALM      30.29S                  
PECOS          CLEAR     41  35  79 CALM      30.29S                  
PRESIDIO       FAIR      44  37  76 S5        30.33F                  
SEMINOLE       CLOUDY    41  32  69 N3        30.34R                  
SNYDER         PTCLDY    43  34  71 N5        30.28F                  
WINK           CLOUDY    42  36  79 N7        30.27F WCI  38          
$$
...OTHER STATIONS IN TEXAS...
  
CITY           SKY/WX    TMP DP  RH WIND       PRES   REMARKS
ABILENE        PTCLDY    41  38  89 S3        30.28F                  
AMARILLO       CLOUDY    38  17  42 E3        30.30F                  
AUSTIN         MOCLDY    47  40  76 CALM      30.27F                  
BROWNSVILLE    FAIR      58  54  86 N5        30.29F                  
CORPUS CHRISTI CLOUDY    52  47  83 CALM      30.28F                  
DALLAS FTW     CLOUDY    50  37  61 W8        30.24S                  
DEL RIO        CLOUDY    50  40  68 CALM      30.27F                  
EL PASO        CLOUDY    50  25  37 NE3       30.30S                  
HOUSTON INT    CLOUDY    52  50  93 S3        30.29S                  
LUBBOCK        CLOUDY    36  29  75 N5        30.30F WCI  32          
SAN ANGELO     CLOUDY    46  37  71 SE3       30.28S                  
SAN ANTONIO    CLOUDY    50  39  66 W3        30.28F                  
WACO           MOCLDY    47  41  80 CALM      30.26F                  
WICHITA FALLS  CLOUDY    35  30  82 N3        30.30F                  
$$
...OTHER LOCATIONS IN NEW MEXICO...
  
CITY           SKY/WX    TMP DP  RH WIND       PRES   REMARKS
ALAMOGORDO     CLOUDY    48  19  32 W3        30.34                   
ALBUQUERQUE    MOCLDY    40  16  37 NE5       30.34S WCI  37          
CANNON AFB     MOCLDY    34  16  47 N8        30.33F WCI  27          
CLOVIS         MOCLDY    31  18  58 N10       30.33F WCI  22          
HOLLOMAN AFB   CLOUDY    47  22  37 E3        30.35F                  
ROSWELL        MOCLDY    40  31  70 NW5       30.31R WCI  37          
RUIDOSO        CLOUDY    37  10  32 SW3       30.38                   
SANTA FE       CLEAR     28  13  53 N8        30.35S WCI  20          
TRUTH OR CONSE LGT RAIN  46  36  68 S9        30.34S                  
TUCUMCARI      PTCLDY    33  18  53 N3        30.31F                  
$$